Weather History for Point Pleasant, WV

Change the Weather History Date:

Sunday, September 1, 2013

  Actual Average (KHTS) Record (KHTS)
Temperature  
Mean Temperature 78 °F 73 °F  
Max Temperature 87 °F 84 °F 103 °F (1953)
Min Temperature 69 °F 62 °F 47 °F (1946)
Degree Days  
Heating Degree Days 0 0  
Month to date heating degree days 0  
Since 1 July heating degree days 2  
Cooling Degree Days 13 8  
Month to date cooling degree days 8  
Year to date cooling degree days 985  
Growing Degree Days 28 (Base 50)    
Moisture  
Dew Point 70 °F    
Average Humidity 82    
Maximum Humidity 100    
Minimum Humidity 52    
Precipitation  
Precipitation 0.00 in 0.10 in 1.78 in (1944)
Month to date precipitation 0.10  
Year to date precipitation 30.35  
Snow  
Snow 0.00 in - - ()
Month to date snowfall  
Since 1 September snowfall  
Snow Depth -    
Sea Level Pressure  
Sea Level Pressure 29.85 in    
Wind  
Wind Speed 1 mph (SW)    
Max Wind Speed 8 mph    
Max Gust Speed -    
Visibility 9 miles    
Events Rain    
T = Trace of Precipitation, MM = Missing Value Source: NWS Daily Summary

Daily Weather History Graph

Daily Weather History Graph

Search for Another Location

Airport:

Trip Planner

Search our weather history database for the weather conditions in past years. The results will help you decide how hot, cold, wet, or windy it might be!

Date:

Astronomy

Sep. 01, 2013 Rise Set
Actual Time 6:57 AM EDT 7:58 PM EDT
Civil Twilight 6:30 AM EDT 8:25 PM EDT
Nautical Twilight 5:57 AM EDT 8:58 PM EDT
Astronomical Twilight 5:23 AM EDT 9:31 PM EDT
Moon 3:19 AM EDT (9/1) 5:33 PM EDT (9/1)
Length of Visible Light 13h 55m
Length of Day
13h 00m
Waning Crescent, 14% of the Moon is Illuminated
Sep 1
Waning Crescent
Sep 5
New
Sep 12
First Quarter
Sep 19
Full
Sep 26
Last Quarter

Hourly Weather History & Observations

Time (EDT) Temp. Heat Index Dew Point Humidity Pressure Visibility Wind Dir Wind Speed Gust Speed Precip Events Conditions
12:15 AM 73.4 °F - 69.8 °F 88% 29.87 in 10.0 mi Calm Calm - N/A   Overcast
12:35 AM 73.4 °F - 71.6 °F 94% 29.87 in 1.5 mi Calm Calm - N/A Rain Light Rain
12:55 AM 73.4 °F - 71.6 °F 94% 29.87 in 5.0 mi Calm Calm - N/A   Mostly Cloudy
1:15 AM 73.4 °F - 71.6 °F 94% 29.86 in 5.0 mi Calm Calm - N/A   Overcast
1:35 AM 71.6 °F - 71.6 °F 100% 29.86 in 7.0 mi Calm Calm - N/A   Mostly Cloudy
1:55 AM 71.6 °F - 69.8 °F 94% 29.86 in 10.0 mi Calm Calm - N/A   Scattered Clouds
2:15 AM 73.4 °F - 69.8 °F 88% 29.85 in 10.0 mi SW 4.6 mph - N/A   Clear
2:35 AM 71.6 °F - 69.8 °F 94% 29.85 in 10.0 mi Calm Calm - N/A   Clear
2:55 AM 71.6 °F - 69.8 °F 94% 29.85 in 7.0 mi Calm Calm - N/A   Clear
3:15 AM 71.6 °F - 69.8 °F 94% 29.85 in 5.0 mi Calm Calm - N/A   Clear
3:35 AM 71.6 °F - 69.8 °F 94% 29.85 in 4.0 mi Calm Calm - N/A   Scattered Clouds
3:55 AM 71.6 °F - 69.8 °F 94% 29.85 in 4.0 mi Calm Calm - N/A   Mostly Cloudy
4:15 AM 71.6 °F - 69.8 °F 94% 29.85 in 4.0 mi Calm Calm - N/A   Overcast
4:35 AM 71.6 °F - 69.8 °F 94% 29.85 in 4.0 mi Calm Calm - N/A   Mostly Cloudy
4:55 AM 69.8 °F - 69.8 °F 100% 29.85 in 5.0 mi Calm Calm - N/A   Scattered Clouds
5:15 AM 71.6 °F - 69.8 °F 94% 29.85 in 10.0 mi WSW 3.5 mph - N/A   Scattered Clouds
5:35 AM 71.6 °F - 69.8 °F 94% 29.85 in 10.0 mi Calm Calm - N/A   Scattered Clouds
5:55 AM 71.6 °F - 69.8 °F 94% 29.86 in 7.0 mi Calm Calm - N/A   Mostly Cloudy
6:15 AM 71.6 °F - 69.8 °F 94% 29.86 in 10.0 mi Calm Calm - N/A   Scattered Clouds
6:35 AM 69.8 °F - 68.0 °F 94% 29.86 in 7.0 mi SW 3.5 mph - N/A   Clear
6:55 AM 71.6 °F - 69.8 °F 94% 29.86 in 10.0 mi SW 3.5 mph - N/A   Clear
7:15 AM 69.8 °F - 68.0 °F 94% 29.87 in 10.0 mi Calm Calm - N/A   Clear
7:35 AM 69.8 °F - 68.0 °F 94% 29.87 in 5.0 mi Calm Calm - N/A   Clear
7:55 AM 69.8 °F - 69.8 °F 100% 29.87 in 7.0 mi South 3.5 mph - N/A   Clear
8:15 AM 71.6 °F - 69.8 °F 94% 29.88 in 10.0 mi Calm Calm - N/A   Clear
8:35 AM 71.6 °F - 69.8 °F 94% 29.87 in 7.0 mi Calm Calm - N/A   Clear
8:55 AM 71.6 °F - 69.8 °F 94% 29.87 in 10.0 mi Calm Calm - N/A   Clear
9:15 AM 73.4 °F - 69.8 °F 88% 29.87 in 10.0 mi Calm Calm - N/A   Clear
9:35 AM 73.4 °F - 69.8 °F 88% 29.89 in 10.0 mi South 3.5 mph - N/A   Clear
9:55 AM 73.4 °F - 69.8 °F 88% 29.89 in 10.0 mi Calm Calm - N/A   Clear
10:15 AM 73.4 °F - 69.8 °F 88% 29.89 in 10.0 mi Calm Calm - N/A   Clear
10:35 AM 73.4 °F - 69.8 °F 88% 29.89 in 10.0 mi Calm Calm - N/A   Clear
10:55 AM 75.2 °F - 69.8 °F 83% 29.88 in 10.0 mi Calm Calm - N/A   Scattered Clouds
11:15 AM 78.8 °F - 69.8 °F 74% 29.88 in 10.0 mi SSW 3.5 mph - N/A   Scattered Clouds
11:35 AM 80.6 °F 83.2 °F 68.0 °F 65% 29.87 in 10.0 mi SSE 3.5 mph - N/A   Scattered Clouds
11:55 AM 82.4 °F 85.4 °F 68.0 °F 62% 29.87 in 10.0 mi South 5.8 mph - N/A   Clear
12:15 PM 82.4 °F 86.3 °F 69.8 °F 66% 29.87 in 10.0 mi SW 5.8 mph - N/A   Clear
12:35 PM 82.4 °F 86.3 °F 69.8 °F 66% 29.87 in 10.0 mi SW 8.1 mph - N/A   Mostly Cloudy
12:55 PM 82.4 °F 85.4 °F 68.0 °F 62% 29.86 in 10.0 mi South 5.8 mph - N/A   Scattered Clouds
1:15 PM 82.4 °F 86.3 °F 69.8 °F 66% 29.86 in 10.0 mi SW 5.8 mph - N/A   Mostly Cloudy
1:35 PM 84.2 °F 88.4 °F 69.8 °F 62% 29.86 in 10.0 mi SSW 4.6 mph - N/A   Mostly Cloudy
1:55 PM 82.4 °F 86.3 °F 69.8 °F 66% 29.86 in 10.0 mi SW 5.8 mph - N/A   Mostly Cloudy
2:15 PM 84.2 °F 88.4 °F 69.8 °F 62% 29.86 in 10.0 mi SSW 6.9 mph - N/A   Overcast
2:35 PM 84.2 °F 88.4 °F 69.8 °F 62% 29.86 in 10.0 mi SW 5.8 mph - N/A   Mostly Cloudy
2:55 PM 86.0 °F 90.4 °F 69.8 °F 58% 29.85 in 10.0 mi WSW 4.6 mph - N/A   Scattered Clouds
3:15 PM 86.0 °F 90.4 °F 69.8 °F 58% 29.84 in 10.0 mi SSW 3.5 mph - N/A   Scattered Clouds
3:35 PM 86.0 °F 90.4 °F 69.8 °F 58% 29.83 in 10.0 mi Calm Calm - N/A   Scattered Clouds
3:55 PM 86.0 °F 90.4 °F 69.8 °F 58% 29.82 in 10.0 mi SW 4.6 mph - N/A   Clear
4:15 PM 87.8 °F 92.6 °F 69.8 °F 55% 29.82 in 10.0 mi SW 4.6 mph - N/A   Clear
4:35 PM 87.8 °F 91.4 °F 68.0 °F 52% 29.82 in 10.0 mi WSW 5.8 mph - N/A   Scattered Clouds
4:55 PM 87.8 °F 91.4 °F 68.0 °F 52% 29.82 in 10.0 mi SSW 3.5 mph - N/A   Mostly Cloudy
5:15 PM 86.0 °F 90.4 °F 69.8 °F 58% 29.82 in 10.0 mi SSW 4.6 mph - N/A   Mostly Cloudy
5:35 PM 86.0 °F 89.4 °F 68.0 °F 55% 29.81 in 10.0 mi WSW 4.6 mph - N/A   Scattered Clouds
5:55 PM 86.0 °F 89.4 °F 68.0 °F 55% 29.81 in 10.0 mi WSW 3.5 mph - N/A   Scattered Clouds
6:15 PM 86.0 °F 90.4 °F 69.8 °F 58% 29.81 in 10.0 mi SW 5.8 mph - N/A   Scattered Clouds
6:35 PM 84.2 °F 88.4 °F 69.8 °F 62% 29.81 in 10.0 mi SW 3.5 mph - N/A   Clear
6:55 PM 82.4 °F 86.3 °F 69.8 °F 66% 29.81 in 10.0 mi Calm Calm - N/A   Clear
7:15 PM 80.6 °F 84.6 °F 71.6 °F 74% 29.81 in 10.0 mi Calm Calm - N/A   Clear
7:35 PM 78.8 °F - 71.6 °F 78% 29.82 in 10.0 mi Calm Calm - N/A   Clear
7:55 PM 77.0 °F - 71.6 °F 83% 29.82 in 10.0 mi Calm Calm - N/A   Clear
8:15 PM 75.2 °F - 69.8 °F 83% 29.82 in 10.0 mi Calm Calm - N/A   Clear
8:35 PM 73.4 °F - 69.8 °F 88% 29.83 in 10.0 mi Calm Calm - N/A   Clear
8:55 PM 73.4 °F - 69.8 °F 88% 29.84 in 10.0 mi Calm Calm - N/A   Clear
9:15 PM 73.4 °F - 69.8 °F 88% 29.84 in 10.0 mi Calm Calm - N/A   Clear
9:35 PM 71.6 °F - 69.8 °F 94% 29.84 in 10.0 mi Calm Calm - N/A   Clear
9:55 PM 71.6 °F - 69.8 °F 94% 29.84 in 10.0 mi Calm Calm - N/A   Clear
10:15 PM 71.6 °F - 69.8 °F 94% 29.84 in 10.0 mi Calm Calm - N/A   Clear
10:35 PM 71.6 °F - 69.8 °F 94% 29.84 in 10.0 mi Calm Calm - N/A   Clear
10:55 PM 71.6 °F - 69.8 °F 94% 29.84 in 7.0 mi Calm Calm - N/A   Clear
11:15 PM 69.8 °F - 69.8 °F 100% 29.84 in 10.0 mi Calm Calm - N/A   Clear
11:35 PM 69.8 °F - 69.8 °F 100% 29.85 in 7.0 mi Calm Calm - N/A   Scattered Clouds
11:55 PM 69.8 °F - 68.0 °F 94% 29.84 in 7.0 mi Calm Calm - N/A   Scattered Clouds